Location: Alvediston
(51.0078°N, 2.0364°W)
Time: 02:07:49
(UTC+00:00)

Cosmos 540 Rocket - Pass Details

Date: 27 February 2020
Orbit: 740 x 754 km, 74.1° (Epoch: 09 April)

Event Time Altitude Azimuth Distance (km) Brightness Sun altitude
Rises 19:27:06 0° 180° (S) 3,170 6.6 -16.8°
Reaches altitude 10° 19:29:33 10° 174° (S) 2,253 5.8 -17.2°
Maximum altitude 19:34:19 41° 105° (ESE) 1,072 3.8 -18.0°
Drops below altitude 10° 19:39:08 10° 36° (NE) 2,278 5.7 -18.7°
Sets 19:41:36 0° 29° (NNE) 3,210 6.5 -19.1°
